Flag for Germany Weather past 2 weeks in Mannheim, Baden-Württemberg, Germany

Now
90 °F

Passing clouds.


Feels Like: 87 °F
Forecast: 69 / 94 °F
Wind: 7 mph from Southeast

Location: Baden Wurttemberg - Neuostheim

Current Time: Jul 1, 2015 at 2:57:12 PM

Latest Report: Jul 1, 2015 at 2:20 PM


Visibility: N/A

Pressure: 30.07 "Hg

Humidity: 27%

Dew point: 52 °F

Location of MannheimLocation

Historic Weather in Mannheim — Graph

°F

Mannheim temperature yesterday

Maximum temperature yesterday: 88 °F (at 6:20 PM)
Minimum temperature yesterday: 63 °F (at 5:50 AM)
Average temperature yesterday: 78 °F

Past Weeks' High & Low Weather Summary

 TemperatureHumidityPressure
High88 °F (Jun 30, 6:20 PM)100% (Jun 18, 10:20 AM)30.27 "Hg (Jun 18, 10:20 AM)
Low50 °F (Jun 17, 5:20 AM)25% (Jun 30, 6:20 PM)29.74 "Hg (Jun 22, 9:20 PM)
Average66 °F60%30.09 "Hg
* Reported Jun 16 1:20 PM — Jul 1 1:20 PM, Mannheim, Weather by CustomWeather, © 2015

Note: Actual official high and low records may vary slightly from our data, if they occured in-between our weather recording intervals... More about our weather records

Advertising

Mannheim weather history for previous 24 hours

 ConditionsComfort  
Time TempWeatherWind HumidityBarometerVisibility
1:20 PM
Wed, Jul 1
88 °FPassing clouds.8 mph29%30.07 "HgN/A
12:50 PM88 °FPassing clouds.9 mph31%30.07 "HgN/A
12:20 PM88 °FPassing clouds.6 mph31%30.09 "HgN/A
11:50 AM86 °FSunny.3 mph38%30.09 "Hg10 mi
11:20 AM84 °FSunny.2 mph37%30.09 "Hg10 mi
10:50 AM82 °FSunny.2 mph42%30.09 "Hg10 mi
10:20 AM81 °FSunny.2 mph42%30.09 "Hg10 mi
9:50 AM77 °FSunny.2 mph44%30.09 "Hg10 mi
9:20 AM77 °FSunny.2 mph44%30.09 "Hg10 mi
8:50 AM75 °FSunny.2 mph47%30.09 "Hg10 mi
8:20 AM73 °FSunny.3 mph53%30.09 "Hg10 mi
7:50 AM72 °FSunny.2 mph57%30.09 "Hg10 mi
7:20 AM70 °FSunny.2 mph60%30.09 "Hg10 mi
6:50 AM68 °FSunny.2 mph64%30.09 "Hg10 mi
6:20 AM66 °FClear.2 mph68%30.09 "Hg10 mi
5:50 AM63 °FClear.2 mph77%30.09 "Hg10 mi
5:20 AM63 °FClear.2 mph77%30.09 "Hg10 mi
3:50 AM64 °FClear.2 mph68%30.09 "Hg10 mi
9:50 PM
Tue, Jun 30
81 °FSunny.5 mph30%30.07 "Hg10 mi
9:20 PM81 °FSunny.6 mph28%30.07 "Hg10 mi
8:50 PM82 °FPassing clouds.6 mph28%30.07 "HgN/A
8:20 PM84 °FSunny.7 mph27%30.07 "Hg10 mi
7:50 PM84 °FPassing clouds.8 mph27%30.07 "HgN/A
6:50 PM86 °FPassing clouds.5 mph29%30.07 "HgN/A
6:20 PM88 °FSunny.2 mph25%30.07 "Hg10 mi
5:50 PM86 °FSunny.3 mph29%30.07 "Hg10 mi
4:50 PM86 °FSunny.3 mph27%30.09 "Hg10 mi
4:20 PM86 °FSunny.3 mph29%30.09 "Hg10 mi
3:50 PM84 °FSunny.5 mph31%30.09 "Hg10 mi
2:50 PM84 °FSunny.5 mph31%30.12 "Hg10 mi
2:20 PM82 °FSunny.3 mph30%30.12 "Hg10 mi
Weather by CustomWeather, © 2015

See weather overviewHow to use our weather pages